Time,TemperatureF,DewpointF,PressureIn,WindDirection,WindDirectionDegrees,WindSpeedMPH,WindSpeedGustMPH,Humidity,HourlyPrecipIn,Conditions,Clouds,dailyrainin,SoftwareType,DateUTC
2013-02-28 00:22:00,37.0,32.0,29.77,NW,310,6.0,-999.0,80,-99.99,,,-99.99,,2013-02-28 05:22:00,
2013-02-28 00:32:00,37.0,32.0,29.77,NW,310,6.0,-999.0,80,-99.99,,,-99.99,,2013-02-28 05:32:00,
2013-02-28 00:42:00,37.0,32.0,29.77,NW,310,6.0,-999.0,80,-99.99,,,-99.99,,2013-02-28 05:42:00,
2013-02-28 00:52:00,37.0,32.0,29.77,NW,310,6.0,-999.0,80,-99.99,,,-99.99,,2013-02-28 05:52:00,
2013-02-28 01:11:00,36.0,28.0,29.77,North,-99,7.0,-999.0,74,-99.99,,,-99.99,,2013-02-28 06:11:00,
2013-02-28 01:22:00,36.0,28.0,29.77,North,-99,7.0,-999.0,74,-99.99,,,-99.99,,2013-02-28 06:22:00,
2013-02-28 01:32:00,36.0,28.0,29.77,North,-99,7.0,-999.0,74,-99.99,,,-99.99,,2013-02-28 06:32:00,
2013-02-28 01:42:00,36.0,28.0,29.77,North,-99,7.0,-999.0,74,-99.99,,,-99.99,,2013-02-28 06:42:00,
2013-02-28 01:52:00,36.0,28.0,29.77,North,-99,7.0,-999.0,74,-99.99,,,-99.99,,2013-02-28 06:52:00,
2013-02-28 02:22:00,34.0,28.0,29.76,North,0,0.0,-999.0,80,-99.99,,,-99.99,,2013-02-28 07:22:00,
2013-02-28 02:32:00,34.0,28.0,29.76,North,0,0.0,-999.0,80,-99.99,,,-99.99,,2013-02-28 07:32:00,
2013-02-28 02:42:00,34.0,28.0,29.76,North,0,0.0,-999.0,80,-99.99,,,-99.99,,2013-02-28 07:42:00,
2013-02-28 02:51:00,34.0,28.0,29.76,North,0,0.0,-999.0,80,-99.99,,,-99.99,,2013-02-28 07:51:00,
2013-02-28 03:12:00,34.0,27.0,29.74,North,0,0.0,-999.0,74,-99.99,,,-99.99,,2013-02-28 08:12:00,
2013-02-28 03:22:00,34.0,27.0,29.74,North,0,0.0,-999.0,74,-99.99,,,-99.99,,2013-02-28 08:22:00,
2013-02-28 03:32:00,34.0,27.0,29.74,North,0,0.0,-999.0,74,-99.99,,,-99.99,,2013-02-28 08:32:00,
2013-02-28 03:42:00,34.0,27.0,29.74,North,0,0.0,-999.0,74,-99.99,,,-99.99,,2013-02-28 08:42:00,
2013-02-28 03:52:00,34.0,27.0,29.74,North,0,0.0,-999.0,74,-99.99,,,-99.99,,2013-02-28 08:52:00,
2013-02-28 07:12:00,30.0,25.0,29.75,North,0,0.0,-999.0,80,-99.99,,,-99.99,,2013-02-28 12:12:00,
2013-02-28 07:22:00,30.0,25.0,29.75,North,0,0.0,-999.0,80,-99.99,,,-99.99,,2013-02-28 12:22:00,
2013-02-28 07:32:00,30.0,25.0,29.75,North,0,0.0,-999.0,80,-99.99,,,-99.99,,2013-02-28 12:32:00,
2013-02-28 07:42:00,30.0,25.0,29.75,North,0,0.0,-999.0,80,-99.99,,,-99.99,,2013-02-28 12:42:00,
2013-02-28 07:52:00,30.0,25.0,29.75,North,0,0.0,-999.0,80,-99.99,,,-99.99,,2013-02-28 12:52:00,
2013-02-28 08:22:00,30.0,25.0,29.76,NW,310,6.0,-999.0,80,-99.99,,,-99.99,,2013-02-28 13:22:00,
2013-02-28 08:32:00,30.0,25.0,29.76,NW,310,6.0,-999.0,80,-99.99,,,-99.99,,2013-02-28 13:32:00,
2013-02-28 08:42:00,30.0,25.0,29.76,NW,310,6.0,-999.0,80,-99.99,,,-99.99,,2013-02-28 13:42:00,
2013-02-28 08:52:00,30.0,25.0,29.76,NW,310,6.0,-999.0,80,-99.99,,,-99.99,,2013-02-28 13:52:00,
2013-02-28 09:12:00,32.0,25.0,29.77,WNW,300,10.0,-999.0,74,-99.99,,,-99.99,,2013-02-28 14:12:00,
2013-02-28 09:22:00,32.0,25.0,29.77,WNW,300,10.0,-999.0,74,-99.99,,,-99.99,,2013-02-28 14:22:00,
2013-02-28 09:32:00,32.0,25.0,29.77,WNW,300,10.0,-999.0,74,-99.99,,,-99.99,,2013-02-28 14:32:00,
2013-02-28 09:42:00,32.0,25.0,29.77,WNW,300,10.0,-999.0,74,-99.99,,,-99.99,,2013-02-28 14:42:00,
2013-02-28 09:52:00,32.0,25.0,29.77,WNW,300,10.0,-999.0,74,-99.99,,,-99.99,,2013-02-28 14:52:00,
2013-02-28 10:22:00,30.0,25.0,29.78,West,260,12.0,18.0,80,-99.99,,,-99.99,,2013-02-28 15:22:00,
2013-02-28 10:32:00,30.0,25.0,29.78,West,260,12.0,18.0,80,-99.99,,,-99.99,,2013-02-28 15:32:00,
2013-02-28 10:42:00,30.0,25.0,29.78,West,260,12.0,18.0,80,-99.99,,,-99.99,,2013-02-28 15:42:00,
2013-02-28 10:52:00,30.0,25.0,29.78,West,260,12.0,18.0,80,-99.99,,,-99.99,,2013-02-28 15:52:00,
2013-02-28 11:42:00,32.0,25.0,29.78,West,280,10.0,20.0,74,-99.99,,,-99.99,,2013-02-28 16:42:00,
2013-02-28 11:52:00,32.0,25.0,29.78,West,280,10.0,20.0,74,-99.99,,,-99.99,,2013-02-28 16:52:00,
2013-02-28 12:22:00,34.0,27.0,29.80,NW,320,7.0,-999.0,74,-99.99,,,-99.99,,2013-02-28 17:22:00,
2013-02-28 12:32:00,34.0,27.0,29.80,NW,320,7.0,-999.0,74,-99.99,,,-99.99,,2013-02-28 17:32:00,
2013-02-28 12:42:00,34.0,27.0,29.80,NW,320,7.0,-999.0,74,-99.99,,,-99.99,,2013-02-28 17:42:00,
2013-02-28 12:52:00,34.0,27.0,29.80,NW,320,7.0,-999.0,74,-99.99,,,-99.99,,2013-02-28 17:52:00,
2013-02-28 13:22:00,34.0,27.0,29.80,North,-99,6.0,-999.0,74,-99.99,,,-99.99,,2013-02-28 18:22:00,
2013-02-28 13:32:00,34.0,27.0,29.80,North,-99,6.0,-999.0,74,-99.99,,,-99.99,,2013-02-28 18:32:00,
2013-02-28 13:42:00,34.0,27.0,29.80,North,-99,6.0,-999.0,74,-99.99,,,-99.99,,2013-02-28 18:42:00,
2013-02-28 13:52:00,34.0,27.0,29.80,North,-99,6.0,-999.0,74,-99.99,,,-99.99,,2013-02-28 18:52:00,
2013-02-28 14:12:00,32.0,25.0,29.81,West,270,8.0,-999.0,74,-99.99,,,-99.99,,2013-02-28 19:12:00,
2013-02-28 14:22:00,32.0,25.0,29.81,West,270,8.0,-999.0,74,-99.99,,,-99.99,,2013-02-28 19:22:00,
2013-02-28 14:32:00,32.0,25.0,29.81,West,270,8.0,-999.0,74,-99.99,,,-99.99,,2013-02-28 19:32:00,
2013-02-28 14:42:00,32.0,25.0,29.81,West,270,8.0,-999.0,74,-99.99,,,-99.99,,2013-02-28 19:42:00,
2013-02-28 14:52:00,32.0,25.0,29.81,West,270,8.0,-999.0,74,-99.99,,,-99.99,,2013-02-28 19:52:00,
2013-02-28 15:22:00,32.0,25.0,29.81,WNW,290,6.0,-999.0,74,-99.99,,,-99.99,,2013-02-28 20:22:00,
2013-02-28 15:32:00,32.0,25.0,29.81,WNW,290,6.0,-999.0,74,-99.99,,,-99.99,,2013-02-28 20:32:00,
2013-02-28 15:42:00,32.0,25.0,29.81,WNW,290,6.0,-999.0,74,-99.99,,,-99.99,,2013-02-28 20:42:00,
2013-02-28 15:52:00,32.0,25.0,29.81,WNW,290,6.0,-999.0,74,-99.99,,,-99.99,,2013-02-28 20:52:00,
2013-02-28 16:22:00,32.0,25.0,29.82,North,-99,7.0,-999.0,74,-99.99,,,-99.99,,2013-02-28 21:22:00,
2013-02-28 16:32:00,32.0,25.0,29.82,North,-99,7.0,-999.0,74,-99.99,,,-99.99,,2013-02-28 21:32:00,
2013-02-28 16:42:00,32.0,25.0,29.82,North,-99,7.0,-999.0,74,-99.99,,,-99.99,,2013-02-28 21:42:00,
2013-02-28 16:52:00,32.0,25.0,29.82,North,-99,7.0,-999.0,74,-99.99,,,-99.99,,2013-02-28 21:52:00,
2013-02-28 17:22:00,30.0,25.0,29.84,North,0,0.0,-999.0,80,-99.99,,,-99.99,,2013-02-28 22:22:00,
2013-02-28 17:32:00,30.0,25.0,29.84,North,0,0.0,-999.0,80,-99.99,,,-99.99,,2013-02-28 22:32:00,
2013-02-28 17:42:00,30.0,25.0,29.84,North,0,0.0,-999.0,80,-99.99,,,-99.99,,2013-02-28 22:42:00,
2013-02-28 17:52:00,30.0,25.0,29.84,North,0,0.0,-999.0,80,-99.99,,,-99.99,,2013-02-28 22:52:00,
2013-02-28 18:52:00,30.0,25.0,29.86,NW,310,8.0,-999.0,80,-99.99,,,-99.99,,2013-02-28 23:52:00,
2013-02-28 19:11:00,28.0,23.0,29.88,NW,310,7.0,-999.0,79,-99.99,,,-99.99,,2013-03-01 00:11:00,
2013-02-28 19:22:00,28.0,23.0,29.88,NW,310,7.0,-999.0,79,-99.99,,,-99.99,,2013-03-01 00:22:00,
2013-02-28 19:32:00,28.0,23.0,29.88,NW,310,7.0,-999.0,79,-99.99,,,-99.99,,2013-03-01 00:32:00,
2013-02-28 19:42:00,28.0,23.0,29.88,NW,310,7.0,-999.0,79,-99.99,,,-99.99,,2013-03-01 00:42:00,
2013-02-28 19:51:00,28.0,23.0,29.88,NW,310,7.0,-999.0,79,-99.99,,,-99.99,,2013-03-01 00:51:00,
2013-02-28 21:11:00,28.0,23.0,29.88,North,0,0.0,-999.0,79,-99.99,,,-99.99,,2013-03-01 02:11:00,
2013-02-28 21:22:00,28.0,23.0,29.88,North,0,0.0,-999.0,79,-99.99,,,-99.99,,2013-03-01 02:22:00,
2013-02-28 21:32:00,28.0,23.0,29.88,North,0,0.0,-999.0,79,-99.99,,,-99.99,,2013-03-01 02:32:00,
2013-02-28 21:42:00,28.0,23.0,29.88,North,0,0.0,-999.0,79,-99.99,,,-99.99,,2013-03-01 02:42:00,
2013-02-28 21:52:00,28.0,23.0,29.88,North,0,0.0,-999.0,79,-99.99,,,-99.99,,2013-03-01 02:52:00,
2013-02-28 22:12:00,28.0,25.0,29.87,North,360,6.0,-999.0,86,-99.99,,,-99.99,,2013-03-01 03:12:00,
2013-02-28 22:22:00,28.0,25.0,29.87,North,360,6.0,-999.0,86,-99.99,,,-99.99,,2013-03-01 03:22:00,
2013-02-28 22:32:00,28.0,25.0,29.87,North,360,6.0,-999.0,86,-99.99,,,-99.99,,2013-03-01 03:32:00,
2013-02-28 22:42:00,28.0,25.0,29.87,North,360,6.0,-999.0,86,-99.99,,,-99.99,,2013-03-01 03:42:00,
2013-02-28 22:51:00,28.0,25.0,29.87,North,360,6.0,-999.0,86,-99.99,,,-99.99,,2013-03-01 03:51:00,
2013-02-28 23:12:00,28.0,25.0,29.87,North,0,0.0,-999.0,86,-99.99,,,-99.99,,2013-03-01 04:12:00,
2013-02-28 23:22:00,28.0,25.0,29.87,North,0,0.0,-999.0,86,-99.99,,,-99.99,,2013-03-01 04:22:00,
2013-02-28 23:32:00,28.0,25.0,29.87,North,0,0.0,-999.0,86,-99.99,,,-99.99,,2013-03-01 04:32:00,
2013-02-28 23:42:00,28.0,25.0,29.87,North,0,0.0,-999.0,86,-99.99,,,-99.99,,2013-03-01 04:42:00,
2013-02-28 23:52:00,28.0,25.0,29.87,North,0,0.0,-999.0,86,-99.99,,,-99.99,,2013-03-01 04:52:00,